#timestamp,LO_Frequency,Hit,StdDev 
1512457215.2,286047001.9,N
1512457235.9,286047003.9,N
1512457255.7,286047002.3,N
1512457275.6,286047002.3,N
1512457295.4,286047005.8,N
1512457315.2,286047007.4,Y
1512457335.1,286047006.9,P
1512457336.0,286047006.9,N
1512457355.8,286047003.0,N
1512457375.6,286047005.6,N
1512457395.5,286047005.6,N
1512457415.3,286047007.4,Y
1512457435.1,286046998.8,P
1512457455.9,286046997.0,N
1512457475.7,286047002.4,N
1512457495.5,286046996.5,N
1512457515.3,286046999.0,N
1512457535.2,286047002.2,N
1512457555.0,286047005.6,N
1512457555.9,286047005.6,N
1512457575.7,286047003.2,N
1512457595.6,286047002.0,N
1512457615.4,286047002.5,N
1512457635.2,286047003.4,N
1512457655.1,286047007.2,N
1512457656.0,286047007.2,N
1512457675.8,286047005.0,N
1512457695.6,286047006.2,N
1512457715.5,286047008.9,N
1512457735.3,286047006.3,N
1512457755.1,286047009.6,N
1512457775.9,286047011.2,Y
1512457795.7,286047011.6,P
1512457815.5,286047011.0,N
1512457835.4,286047011.0,P
1512457855.2,286047009.6,N
1512457875.0,286047006.1,N
1512457875.9,286047006.1,N
1512457895.7,286047006.3,N
1512457915.6,286047006.9,N
1512457935.4,286047008.4,Y
1512457955.3,286046999.9,P
1512457975.1,286047001.0,N
1512457976.0,286047001.0,N
1512457995.8,286046995.5,N
1512458015.6,286046996.8,N
1512458035.5,286046996.8,N
1512458055.3,286046994.0,N
1512458075.1,286046993.4,N
1512458095.9,286046995.3,N
1512458115.7,286046994.3,N
1512458135.5,286046995.2,N
1512458155.4,286047002.3,N
1512458175.2,286047000.9,N
1512458195.0,286047001.9,N
1512458195.9,286047001.9,N
1512458215.8,286047005.5,N
1512458235.6,286047005.6,N
1512458255.4,286047002.6,N
1512458275.2,286047000.3,N
1512458295.1,286046999.2,N
1512458296.0,286046999.2,N
1512458315.8,286046997.7,N
1512458335.6,286046996.7,N
1512458355.5,286046996.7,N
1512458375.3,286046999.3,N
1512458395.1,286047001.2,N
1512458415.9,286047000.7,N
1512458435.7,286047000.4,N
1512458455.5,286046999.2,N
1512458475.4,286046999.6,N
1512458495.2,286046998.1,N
1512458515.0,286047001.5,N
1512458515.9,286047001.5,N
1512458535.8,286047003.1,N
1512458555.6,286047003.8,N
1512458575.4,286047002.4,N
1512458595.2,286046998.1,N
1512458615.1,286046999.1,N
1512458616.0,286046999.1,N
1512458635.8,286046998.7,N
1512458655.6,286047003.3,N
1512458675.5,286047006.8,N
1512458695.3,286047009.8,Y
1512458715.1,286047009.9,P
1512458735.9,286047011.4,N
1512458755.7,286047009.7,N
1512458775.5,286047010.6,N
1512458795.4,286047010.8,N
1512458815.2,286047008.4,N
1512458835.0,286047008.2,N
1512458835.9,286047008.2,N
1512458855.8,286047010.8,Y
1512458875.6,286046998.8,P
1512458895.4,286046997.0,N
1512458915.3,286046997.5,N
1512458935.1,286046997.4,N
1512458936.0,286046997.4,N
1512458955.8,286046997.3,N
1512458975.7,286046996.7,N
1512458995.5,286047002.7,N
1512459015.3,286047006.3,N
1512459035.2,286047011.1,N
1512459055.9,286047014.6,N
1512459075.7,286047016.7,N
1512459095.5,286047018.9,N
1512459115.4,286047021.1,N
1512459135.2,286047024.4,N
1512459155.0,286047024.0,N
1512459155.9,286047024.0,N
1512459175.8,286047026.1,N
1512459195.6,286047026.6,N
1512459215.4,286047028.6,N
1512459235.3,286047031.3,N
1512459255.1,286047030.1,N
1512459256.0,286047030.1,N
1512459275.8,286047032.8,N
1512459295.7,286047031.5,N
1512459315.5,286047030.7,N
1512459335.3,286047029.1,N
1512459355.2,286047024.4,N
1512459375.9,286047026.4,N
1512459395.7,286047029.6,N
1512459415.6,286047025.7,N
1512459435.4,286047029.8,N
1512459455.2,286047027.8,N
1512459475.0,286047026.5,N
1512459476.0,286047026.5,N
1512459495.8,286047026.4,N
1512459515.6,286047024.5,N
1512459535.5,286047026.6,Y
1512459555.3,286047001.0,P
1512459575.1,286046998.6,N
1512459595.8,286046997.9,N
1512459615.7,286046996.9,N
1512459635.5,286046996.3,N
1512459655.3,286046990.4,N
1512459675.2,286046989.6,N
1512459695.9,286046991.2,N
1512459715.7,286046993.0,N
1512459735.6,286046992.0,N
1512459755.4,286046994.8,N
1512459775.2,286046990.1,N
1512459795.1,286046991.3,N
1512459796.0,286046991.3,N
1512459815.8,286046989.8,N
1512459835.6,286046987.7,N
1512459855.5,286046986.1,N
1512459875.3,286046988.0,N
1512459895.1,286046989.0,N
1512459915.8,286046988.9,N
1512459935.7,286046989.8,N
1512459955.5,286046987.0,N
1512459975.3,286046988.3,N
1512459995.2,286046988.3,N
1512460015.9,286046987.4,N
1512460035.7,286046990.2,N
1512460055.6,286046990.7,N
1512460075.4,286046989.0,N
1512460095.2,286046987.2,N
1512460115.1,286046985.1,N
1512460116.0,286046985.1,Y
1512460135.8,286046992.6,P
1512460155.6,286046992.8,P
1512460175.5,286046994.8,P
1512460195.3,286046994.3,Y
1512460215.1,286046998.4,P
1512460235.9,286047002.5,N
1512460255.7,286046998.5,N
1512460275.5,286046997.0,N
1512460295.4,286046996.9,N
1512460315.2,286046991.7,N
1512460335.0,286046992.8,N
1512460335.9,286046992.8,N
1512460355.8,286046992.2,N
1512460375.6,286046993.0,N
1512460395.4,286046990.9,N
1512460415.2,286046990.5,N
1512460435.1,286046992.3,N
1512460436.0,286046992.3,N
1512460455.8,286046990.6,N
1512460475.7,286046988.6,Y
1512460495.5,286046997.5,P
1512460515.3,286046995.2,N
1512460535.1,286046994.4,P
1512460555.9,286046992.6,Y
1512460575.7,286046996.8,P
1512460595.5,286046998.7,N
1512460615.4,286047000.2,N
1512460635.2,286047000.5,N
1512460655.0,286047001.6,N
1512460655.9,286047001.6,N
1512460675.8,286047003.9,N
1512460695.6,286047003.9,N
1512460715.4,286047002.1,N
1512460735.3,286047002.4,N
1512460755.1,286047001.7,N
1512460756.0,286047001.7,N
1512460775.8,286046998.3,N
1512460795.7,286047002.4,N
